AFL1079 UWKD-UWWW

Flight info

Callsign AFL1079
Flight time 0h 55m
Altitude 23000
Route INTAR1G INTAR M161 DOGUR DOGUR7P
Aircraft A320/M-SDE3FGHIRWY/LB1

Departure

Time 2026-05-07 17:41
Airport Kazan International Airport (UWKD)

Arrival

Time 2026-05-07 18:37
Airport Kurumoch International Airport (UWWW)
Time Latitude Longitude Altitude Speed Heading
2026-05-07 17:11 55.60580 49.29915 417 ft 0 kts 33°
2026-05-07 17:18 55.60580 49.29916 417 ft 0 kts 33°
2026-05-07 17:29 55.60582 49.29918 426 ft 3 kts 34°
2026-05-07 17:29 55.60596 49.29934 420 ft 2 kts 35°
2026-05-07 17:29 55.60605 49.29973 424 ft 5 kts 89°
2026-05-07 17:30 55.60590 49.29999 423 ft 3 kts 152°
2026-05-07 17:30 55.60551 49.29981 425 ft 10 kts 211°
2026-05-07 17:30 55.60553 49.29845 420 ft 16 kts 304°
2026-05-07 17:30 55.60582 49.29771 421 ft 0 kts 304°
2026-05-07 17:31 55.60586 49.29760 418 ft 6 kts 305°
2026-05-07 17:31 55.60628 49.29656 421 ft 11 kts 303°
2026-05-07 17:31 55.60671 49.29542 416 ft 11 kts 303°
2026-05-07 17:32 55.60708 49.29422 416 ft 11 kts 296°
2026-05-07 17:32 55.60708 49.29299 411 ft 10 kts 229°
2026-05-07 17:32 55.60657 49.29234 419 ft 8 kts 215°
2026-05-07 17:32 55.60600 49.29150 411 ft 15 kts 231°
2026-05-07 17:33 55.60578 49.28977 417 ft 14 kts 272°
2026-05-07 17:33 55.60585 49.28805 413 ft 14 kts 275°
2026-05-07 17:33 55.60601 49.28632 411 ft 11 kts 289°
2026-05-07 17:33 55.60636 49.28532 407 ft 10 kts 304°
2026-05-07 17:34 55.60671 49.28441 410 ft 8 kts 304°
2026-05-07 17:34 55.60703 49.28358 409 ft 8 kts 304°
2026-05-07 17:34 55.60734 49.28277 404 ft 8 kts 304°
2026-05-07 17:34 55.60783 49.28152 407 ft 22 kts 304°
2026-05-07 17:35 55.60874 49.27904 406 ft 25 kts 302°
2026-05-07 17:35 55.60977 49.27627 400 ft 29 kts 303°
2026-05-07 17:35 55.61072 49.27376 394 ft 22 kts 303°
2026-05-07 17:35 55.61160 49.27145 394 ft 24 kts 304°
2026-05-07 17:36 55.61208 49.27020 391 ft 8 kts 300°
2026-05-07 17:36 55.61208 49.26940 394 ft 6 kts 255°
2026-05-07 17:36 55.61181 49.26889 393 ft 6 kts 215°
2026-05-07 17:36 55.61172 49.26880 393 ft 0 kts 212°
2026-05-07 17:38 55.61147 49.26849 392 ft 9 kts 214°
2026-05-07 17:38 55.61107 49.26790 392 ft 5 kts 221°
2026-05-07 17:39 55.61081 49.26767 392 ft 4 kts 183°
2026-05-07 17:39 55.61060 49.26769 392 ft 1 kts 156°
2026-05-07 17:39 55.61056 49.26779 392 ft 1 kts 135°
2026-05-07 17:39 55.61055 49.26781 392 ft 0 kts 135°
2026-05-07 17:40 55.61045 49.26800 392 ft 12 kts 129°
2026-05-07 17:40 55.60815 49.27369 397 ft 100 kts 123°
2026-05-07 17:40 55.60285 49.28780 453 ft 164 kts 124°
2026-05-07 17:40 55.59563 49.30602 746 ft 201 kts 125°
2026-05-07 17:41 55.58653 49.32806 948 ft 249 kts 126°
2026-05-07 17:41 55.57512 49.35485 1421 ft 280 kts 125°
2026-05-07 17:41 55.56365 49.38416 2009 ft 306 kts 123°
2026-05-07 17:41 55.55158 49.41691 2594 ft 330 kts 122°
2026-05-07 17:42 55.53779 49.45057 3175 ft 351 kts 129°
2026-05-07 17:42 55.52088 49.48162 3740 ft 351 kts 135°
2026-05-07 17:42 55.50260 49.51059 4309 ft 356 kts 138°
2026-05-07 17:42 55.48371 49.53941 4898 ft 362 kts 137°
2026-05-07 17:43 55.46467 49.56897 5464 ft 367 kts 136°
2026-05-07 17:43 55.44573 49.59949 6036 ft 372 kts 135°
2026-05-07 17:43 55.42686 49.63098 6617 ft 376 kts 135°
2026-05-07 17:43 55.40802 49.66317 7176 ft 379 kts 134°
2026-05-07 17:44 55.38911 49.69580 7743 ft 382 kts 134°
2026-05-07 17:44 55.37002 49.72848 8406 ft 385 kts 137°
2026-05-07 17:44 55.34763 49.75452 9126 ft 389 kts 155°
2026-05-07 17:44 55.32236 49.77192 9876 ft 391 kts 159°
2026-05-07 17:45 55.29678 49.78863 10574 ft 393 kts 160°
2026-05-07 17:45 55.27103 49.80516 11290 ft 395 kts 160°
2026-05-07 17:45 55.24517 49.82160 12017 ft 396 kts 160°
2026-05-07 17:45 55.21920 49.83812 12765 ft 397 kts 160°
2026-05-07 17:46 55.19321 49.85467 13530 ft 398 kts 161°
2026-05-07 17:46 55.16733 49.87120 14247 ft 398 kts 161°
2026-05-07 17:46 55.14135 49.88783 14966 ft 397 kts 161°
2026-05-07 17:46 55.11546 49.90441 15707 ft 396 kts 160°
2026-05-07 17:47 55.08966 49.92088 16463 ft 394 kts 160°
2026-05-07 17:47 55.06389 49.93725 17240 ft 392 kts 160°
2026-05-07 17:47 55.03881 49.95316 18026 ft 390 kts 161°
2026-05-07 17:47 55.01303 49.96953 18773 ft 388 kts 160°
2026-05-07 17:48 54.98779 49.98557 19484 ft 385 kts 160°
2026-05-07 17:48 54.96312 50.00128 20208 ft 381 kts 160°
2026-05-07 17:48 54.93817 50.01718 20761 ft 385 kts 160°
2026-05-07 17:48 54.91258 50.03341 20935 ft 398 kts 160°
2026-05-07 17:49 54.88600 50.05015 20976 ft 415 kts 160°
2026-05-07 17:49 54.85839 50.06748 20975 ft 430 kts 160°
2026-05-07 17:49 54.82979 50.08543 20973 ft 443 kts 160°
2026-05-07 17:49 54.80045 50.10384 20972 ft 454 kts 160°
2026-05-07 17:50 54.77069 50.12286 20970 ft 457 kts 159°
2026-05-07 17:50 54.74082 50.14188 20969 ft 458 kts 160°
2026-05-07 17:50 54.71071 50.15981 20969 ft 458 kts 161°
2026-05-07 17:50 54.68033 50.17648 20966 ft 458 kts 163°
2026-05-07 17:51 54.64984 50.19214 20964 ft 454 kts 163°
2026-05-07 17:51 54.62014 50.20678 20962 ft 433 kts 164°
2026-05-07 17:51 54.59179 50.22061 20964 ft 414 kts 164°
2026-05-07 17:51 54.56472 50.23392 20966 ft 397 kts 163°
2026-05-07 17:52 54.53855 50.24698 20962 ft 386 kts 163°
2026-05-07 17:52 54.51330 50.25973 20962 ft 370 kts 163°
2026-05-07 17:52 54.48882 50.27217 20966 ft 364 kts 163°
2026-05-07 17:52 54.46454 50.28454 20959 ft 363 kts 163°
2026-05-07 17:53 54.44035 50.29686 20958 ft 363 kts 163°
2026-05-07 17:53 54.41618 50.30916 20958 ft 362 kts 163°
2026-05-07 17:53 54.39202 50.32143 20958 ft 362 kts 163°
2026-05-07 17:53 54.36784 50.33385 20959 ft 362 kts 164°
2026-05-07 17:54 54.34299 50.34061 20956 ft 363 kts 175°
2026-05-07 17:54 54.31777 50.34179 20952 ft 361 kts 180°
2026-05-07 17:54 54.29349 50.34100 20952 ft 346 kts 181°
2026-05-07 17:54 54.26970 50.34050 20858 ft 339 kts 179°
2026-05-07 17:55 54.24635 50.34121 20597 ft 333 kts 177°
2026-05-07 17:55 54.22344 50.33833 20265 ft 330 kts 194°
2026-05-07 17:55 54.20192 50.32531 19894 ft 328 kts 198°
2026-05-07 17:55 54.17947 50.31966 19287 ft 332 kts 177°
2026-05-07 17:56 54.15612 50.32329 18512 ft 340 kts 171°
2026-05-07 17:56 54.13279 50.32990 17702 ft 340 kts 168°
2026-05-07 17:56 54.10953 50.33702 16909 ft 339 kts 169°
2026-05-07 17:56 54.08629 50.34353 16137 ft 338 kts 170°
2026-05-07 17:57 54.06307 50.34911 15452 ft 335 kts 172°
2026-05-07 17:57 54.04780 50.35232 15013 ft 333 kts 172°
2026-05-07 17:57 54.01711 50.35808 14140 ft 330 kts 173°
2026-05-07 17:57 53.99437 50.36207 13472 ft 327 kts 173°
2026-05-07 17:58 53.97181 50.36599 12761 ft 324 kts 173°
2026-05-07 17:58 53.94948 50.36988 12067 ft 321 kts 173°
2026-05-07 17:58 53.92733 50.37380 11386 ft 318 kts 173°
2026-05-07 17:58 53.90540 50.37771 10721 ft 315 kts 173°
2026-05-07 17:59 53.88371 50.38163 10066 ft 312 kts 173°
2026-05-07 17:59 53.86219 50.38550 9385 ft 309 kts 173°
2026-05-07 17:59 53.84097 50.38929 8682 ft 305 kts 173°
2026-05-07 17:59 53.81998 50.39305 7995 ft 301 kts 173°
2026-05-07 18:00 53.79931 50.39675 7330 ft 297 kts 172°
2026-05-07 18:00 53.77913 50.40036 6652 ft 294 kts 172°
2026-05-07 18:00 53.75894 50.40421 5963 ft 290 kts 172°
2026-05-07 18:00 53.73869 50.40794 5250 ft 287 kts 172°
2026-05-07 18:01 53.71917 50.41123 4567 ft 285 kts 173°
2026-05-07 18:01 53.69951 50.41423 3863 ft 283 kts 173°
2026-05-07 18:01 53.68027 50.41694 3494 ft 268 kts 172°
2026-05-07 18:01 53.66243 50.41932 3317 ft 248 kts 172°
2026-05-07 18:02 53.62655 50.42421 2927 ft 285 kts 172°
2026-05-07 18:02 53.60720 50.42680 2733 ft 274 kts 172°
2026-05-07 18:02 53.58854 50.42921 2562 ft 262 kts 172°
2026-05-07 18:03 53.57060 50.43153 2494 ft 257 kts 171°
2026-05-07 18:03 53.55278 50.43391 2500 ft 257 kts 172°
2026-05-07 18:03 53.53498 50.43629 2501 ft 257 kts 172°
2026-05-07 18:03 53.51707 50.43868 2499 ft 263 kts 172°
2026-05-07 18:04 53.49842 50.44117 2505 ft 275 kts 172°
2026-05-07 18:04 53.47921 50.44374 2504 ft 279 kts 172°
2026-05-07 18:04 53.45982 50.44628 2494 ft 279 kts 172°
2026-05-07 18:04 53.44048 50.44882 2489 ft 276 kts 171°
2026-05-07 18:05 53.42191 50.45123 2477 ft 259 kts 171°
2026-05-07 18:05 53.40418 50.45348 2472 ft 254 kts 171°
2026-05-07 18:05 53.38651 50.45116 2471 ft 259 kts 194°
2026-05-07 18:05 53.37114 50.43667 2481 ft 253 kts 224°
2026-05-07 18:06 53.36131 50.41290 2483 ft 247 kts 252°
2026-05-07 18:06 53.35841 50.38555 2480 ft 240 kts 274°
2026-05-07 18:06 53.35823 50.35833 2478 ft 230 kts 274°
2026-05-07 18:06 53.35800 50.33195 2515 ft 224 kts 273°
2026-05-07 18:07 53.35831 50.30620 2474 ft 218 kts 283°
2026-05-07 18:07 53.36290 50.28232 2476 ft 209 kts 305°
2026-05-07 18:07 53.37127 50.26347 2476 ft 202 kts 323°
2026-05-07 18:07 53.38224 50.24985 2439 ft 183 kts 337°
2026-05-07 18:08 53.39281 50.24089 2252 ft 162 kts 342°
2026-05-07 18:08 53.40303 50.23420 2013 ft 152 kts 348°
2026-05-07 18:08 53.41278 50.22985 1830 ft 143 kts 355°
2026-05-07 18:08 53.42240 50.22631 1611 ft 139 kts 351°
2026-05-07 18:09 53.43165 50.22079 1431 ft 141 kts 343°
2026-05-07 18:09 53.44069 50.21495 1228 ft 139 kts 344°
2026-05-07 18:09 53.44963 50.20936 1292 ft 139 kts 344°
2026-05-07 18:09 53.45878 50.20406 1044 ft 141 kts 344°
2026-05-07 18:10 53.46779 50.19877 932 ft 136 kts 343°
2026-05-07 18:10 53.47674 50.19356 742 ft 137 kts 342°
2026-05-07 18:10 53.48563 50.18819 610 ft 135 kts 341°
2026-05-07 18:10 53.49447 50.18277 454 ft 135 kts 342°
2026-05-07 18:11 53.50318 50.17745 551 ft 146 kts 341°
2026-05-07 18:11 53.51029 50.17305 729 ft 175 kts 341°
2026-05-07 18:11 53.52737 50.16255 1332 ft 214 kts 343°
2026-05-07 18:11 53.54220 50.15283 1883 ft 245 kts 343°
2026-05-07 18:12 53.55879 50.14197 2684 ft 268 kts 343°
2026-05-07 18:12 53.57092 50.13434 2860 ft 297 kts 343°
2026-05-07 18:12 53.59186 50.12143 2931 ft 340 kts 343°
2026-05-07 18:12 53.61492 50.10607 3032 ft 375 kts 338°
2026-05-07 18:13 53.63741 50.08743 3688 ft 340 kts 334°
2026-05-07 18:13 53.65436 50.06344 4237 ft 301 kts 308°
2026-05-07 18:13 53.66300 50.03402 4903 ft 270 kts 288°
2026-05-07 18:13 53.66654 50.00183 4973 ft 288 kts 272°
2026-05-07 18:14 53.66419 49.96828 4659 ft 291 kts 254°
2026-05-07 18:14 53.65576 49.93739 4175 ft 291 kts 235°
2026-05-07 18:14 53.64209 49.91247 3669 ft 291 kts 217°
2026-05-07 18:14 53.62455 49.89530 3150 ft 293 kts 201°
2026-05-07 18:15 53.60567 49.88434 2996 ft 279 kts 192°
2026-05-07 18:15 53.58652 49.87855 3004 ft 282 kts 183°
2026-05-07 18:15 53.56692 49.87758 3006 ft 281 kts 174°
2026-05-07 18:15 53.54752 49.88088 3006 ft 280 kts 169°
2026-05-07 18:16 53.52775 49.88486 3010 ft 298 kts 170°
2026-05-07 18:16 53.50612 49.88929 3006 ft 322 kts 170°
2026-05-07 18:16 53.48371 49.89383 3007 ft 326 kts 170°
2026-05-07 18:16 53.46115 49.89830 3010 ft 327 kts 170°
2026-05-07 18:17 53.43853 49.90272 3008 ft 328 kts 170°
2026-05-07 18:17 53.41587 49.90711 2998 ft 328 kts 171°
2026-05-07 18:17 53.39281 49.91200 2985 ft 343 kts 166°
2026-05-07 18:17 53.37099 49.92702 2990 ft 339 kts 141°
2026-05-07 18:18 53.35539 49.95536 2994 ft 322 kts 116°
2026-05-07 18:18 53.34826 49.98887 2988 ft 293 kts 99°
2026-05-07 18:18 53.34391 50.02151 2990 ft 284 kts 99°
2026-05-07 18:18 53.33958 50.05358 2731 ft 280 kts 99°
2026-05-07 18:19 53.33526 50.08539 2482 ft 283 kts 99°
2026-05-07 18:19 53.33089 50.11751 2475 ft 285 kts 98°
2026-05-07 18:19 53.32973 50.14929 2483 ft 262 kts 79°
2026-05-07 18:19 53.33478 50.17698 2476 ft 238 kts 64°
2026-05-07 18:20 53.34099 50.20098 2475 ft 214 kts 63°
2026-05-07 18:20 53.34849 50.22047 2483 ft 186 kts 46°
2026-05-07 18:20 53.35763 50.23341 2499 ft 159 kts 32°
2026-05-07 18:20 53.36705 50.24101 2474 ft 145 kts 21°
2026-05-07 18:21 53.37669 50.24477 2474 ft 141 kts 11°
2026-05-07 18:21 53.38648 50.24495 2477 ft 142 kts
2026-05-07 18:21 53.39624 50.24138 2323 ft 144 kts 348°
2026-05-07 18:21 53.40541 50.23512 2258 ft 140 kts 345°
2026-05-07 18:22 53.41445 50.22888 2039 ft 139 kts 349°
2026-05-07 18:22 53.42062 50.22562 1859 ft 136 kts 351°
2026-05-07 18:22 53.43249 50.21915 1532 ft 134 kts 347°
2026-05-07 18:22 53.44119 50.21373 1327 ft 134 kts 349°
2026-05-07 18:23 53.45022 50.20944 1156 ft 137 kts 347°
2026-05-07 18:23 53.45940 50.20448 1063 ft 140 kts 340°
2026-05-07 18:23 53.46831 50.19803 849 ft 138 kts 339°
2026-05-07 18:23 53.47721 50.19292 717 ft 135 kts 347°
2026-05-07 18:24 53.48614 50.18826 616 ft 135 kts 340°
2026-05-07 18:24 53.49499 50.18268 467 ft 135 kts 339°
2026-05-07 18:24 53.50457 50.17671 804 ft 163 kts 340°
2026-05-07 18:24 53.51648 50.16964 1191 ft 203 kts 344°
2026-05-07 18:25 53.53108 50.16157 1607 ft 240 kts 346°
2026-05-07 18:25 53.54729 50.15265 2008 ft 235 kts 345°
2026-05-07 18:25 53.56309 50.14509 2562 ft 237 kts 358°
2026-05-07 18:25 53.58014 50.14292 3487 ft 252 kts 355°
2026-05-07 18:26 53.59698 50.13812 3786 ft 252 kts 350°
2026-05-07 18:26 53.61461 50.12917 3853 ft 274 kts 337°
2026-05-07 18:26 53.63072 50.11081 3874 ft 291 kts 319°
2026-05-07 18:26 53.64147 50.08136 3985 ft 305 kts 287°
2026-05-07 18:27 53.64213 50.04569 4010 ft 309 kts 259°
2026-05-07 18:27 53.63557 50.01108 4007 ft 312 kts 247°
2026-05-07 18:27 53.62604 49.97719 4010 ft 337 kts 243°
2026-05-07 18:27 53.61536 49.94140 4005 ft 344 kts 244°
2026-05-07 18:28 53.60504 49.90497 4006 ft 345 kts 244°
2026-05-07 18:28 53.59050 49.87293 4009 ft 355 kts 218°
2026-05-07 18:28 53.56812 49.85429 4013 ft 368 kts 191°
2026-05-07 18:28 53.54264 49.85339 4011 ft 368 kts 168°
2026-05-07 18:29 53.51786 49.86430 4003 ft 368 kts 160°
2026-05-07 18:29 53.49350 49.87729 4002 ft 368 kts 160°
2026-05-07 18:29 53.46908 49.89034 4006 ft 368 kts 160°
2026-05-07 18:29 53.44532 49.90208 4001 ft 344 kts 164°
2026-05-07 18:30 53.42258 49.90927 3995 ft 321 kts 168°
2026-05-07 18:30 53.40126 49.91531 3995 ft 300 kts 168°
2026-05-07 18:30 53.38145 49.92183 3992 ft 280 kts 159°
2026-05-07 18:30 53.36492 49.93611 3993 ft 260 kts 138°
2026-05-07 18:31 53.35295 49.95787 3997 ft 251 kts 118°
2026-05-07 18:31 53.34622 49.98442 3999 ft 247 kts 100°
2026-05-07 18:31 53.34498 50.01267 3820 ft 242 kts 84°
2026-05-07 18:31 53.34637 50.04111 3214 ft 249 kts 82°
2026-05-07 18:32 53.34788 50.07036 2650 ft 253 kts 82°
2026-05-07 18:32 53.34932 50.09902 2491 ft 240 kts 82°
2026-05-07 18:32 53.35065 50.12663 2496 ft 236 kts 82°
2026-05-07 18:32 53.35196 50.15387 2486 ft 235 kts 82°
2026-05-07 18:33 53.35327 50.18102 2489 ft 232 kts 82°
2026-05-07 18:33 53.35455 50.20747 2484 ft 226 kts 82°
2026-05-07 18:33 53.35758 50.23275 2487 ft 219 kts 59°
2026-05-07 18:33 53.36796 50.24894 2481 ft 205 kts 22°
2026-05-07 18:34 53.38212 50.25005 2488 ft 212 kts 348°
2026-05-07 18:34 53.39611 50.24174 2208 ft 213 kts 345°
2026-05-07 18:34 53.40972 50.23342 1953 ft 203 kts 345°
2026-05-07 18:34 53.42277 50.22559 1705 ft 188 kts 346°
2026-05-07 18:35 53.43446 50.21862 1498 ft 174 kts 346°
2026-05-07 18:35 53.44539 50.21211 1339 ft 160 kts 346°
2026-05-07 18:35 53.45559 50.20605 1134 ft 149 kts 343°
2026-05-07 18:35 53.46502 50.20044 963 ft 141 kts 343°
2026-05-07 18:36 53.47416 50.19501 775 ft 138 kts 341°
2026-05-07 18:36 53.48315 50.18989 599 ft 136 kts 340°
2026-05-07 18:36 53.49209 50.18428 493 ft 138 kts 339°
2026-05-07 18:36 53.50071 50.17904 425 ft 120 kts 340°
2026-05-07 18:37 53.50660 50.17558 424 ft 48 kts 341°
2026-05-07 18:37 53.50886 50.17426 422 ft 33 kts 341°
2026-05-07 18:37 53.51089 50.17307 421 ft 20 kts 340°
2026-05-07 18:37 53.51219 50.17228 418 ft 20 kts 340°
2026-05-07 18:38 53.51347 50.17136 423 ft 20 kts 338°
2026-05-07 18:38 53.51417 50.16977 425 ft 16 kts 249°
2026-05-07 18:38 53.51392 50.16887 428 ft 0 kts 243°
2026-05-07 18:41 53.51381 50.16852 434 ft 15 kts 243°
2026-05-07 18:41 53.51323 50.16664 439 ft 19 kts 240°
2026-05-07 18:41 53.51257 50.16471 439 ft 19 kts 240°
2026-05-07 18:42 53.51190 50.16274 439 ft 20 kts 240°
2026-05-07 18:42 53.51141 50.16127 428 ft 12 kts 244°
2026-05-07 18:42 53.51091 50.15960 432 ft 21 kts 243°
2026-05-07 18:42 53.51052 50.15827 426 ft 0 kts 243°
2026-05-07 18:43 53.51044 50.15799 432 ft 7 kts 251°
2026-05-07 18:43 53.51057 50.15747 437 ft 4 kts 328°
2026-05-07 18:43 53.51079 50.15727 434 ft 3 kts 330°
2026-05-07 18:43 53.51093 50.15713 439 ft 2 kts 330°
2026-05-07 18:44 53.51095 50.15711 439 ft 0 kts 330°